Weather History for KVNY - August, 2014

Change the Weather History Date:

Wednesday, August 13, 2014

  Actual Average Record
Temperature  
Mean Temperature 76 °F -  
Max Temperature 89 °F 89 °F 102 °F (1996)
Min Temperature 64 °F 63 °F 59 °F (2010)
Cooling Degree Days 12    
Growing Degree Days 26 (Base 50)    
Moisture  
Dew Point 59 °F    
Average Humidity 59    
Maximum Humidity 83    
Minimum Humidity 36    
Precipitation  
Precipitation 0.00 in - - ()
Sea Level Pressure  
Sea Level Pressure 29.93 in    
Wind  
Wind Speed 4 mph (SE)    
Max Wind Speed 13 mph    
Max Gust Speed -    
Visibility 10 miles    
Events      
Averages and records for this station are not official NWS values.
T = Trace of Precipitation, MM = Missing Value Source: NWS Daily Summary

Daily Weather History Graph

Daily Weather History Graph

Search for Another Location

Airport or City:

Trip Planner

Search our weather history database for the weather conditions in past years. The results will help you decide how hot, cold, wet, or windy it might be!

Date:

Astronomy

Aug. 13, 2014 Rise Set
Actual Time 6:13 AM PDT 7:43 PM PDT
Civil Twilight 5:47 AM PDT 8:09 PM PDT
Nautical Twilight 5:15 AM PDT 8:41 PM PDT
Astronomical Twilight 4:41 AM PDT 9:15 PM PDT
Moon 9:44 PM PDT (8/13) 9:36 AM PDT (8/13)
Length of Visible Light 14h 22m
Length of Day
13h 29m
Waning Gibbous, 87% of the Moon is Illuminated
Aug 13
Waning Gibbous
Aug 17
Last Quarter
Aug 25
New
Sep 2
First Quarter
Sep 8
Full

Hourly Weather History & Observations

Time (PDT) Temp. Heat Index Dew Point Humidity Pressure Visibility Wind Dir Wind Speed Gust Speed Precip Events Conditions
12:51 AM 66.9 °F - 57.0 °F 70% 29.93 in 10.0 mi Calm Calm - N/A   Clear
2:51 AM 66.9 °F - 55.9 °F 68% 29.93 in 10.0 mi Calm Calm - N/A   Clear
3:51 AM 66.0 °F - 57.0 °F 73% 29.94 in 10.0 mi East 4.6 mph - N/A   Clear
6:17 AM 64.4 °F - 59.0 °F 83% 29.98 in 9.0 mi ESE 4.6 mph - N/A   Overcast
8:51 AM 66.9 °F - 59.0 °F 76% 29.98 in 9.0 mi South 4.6 mph - N/A   Overcast
9:20 AM 69.8 °F - 59.0 °F 68% 29.99 in 10.0 mi Variable 4.6 mph - N/A   Scattered Clouds
9:51 AM 71.1 °F - 59.0 °F 66% 29.97 in 10.0 mi ESE 3.5 mph - N/A   Clear
10:51 AM 77.0 °F - 59.0 °F 54% 29.97 in 10.0 mi Variable 4.6 mph - N/A   Clear
11:51 AM 80.1 °F 80.7 °F 59.0 °F 48% 29.95 in 10.0 mi Calm Calm - N/A   Clear
12:51 PM 84.9 °F 84.4 °F 59.0 °F 41% 29.93 in 10.0 mi SSE 4.6 mph - N/A   Clear
2:51 PM 86.0 °F 85.7 °F 60.1 °F 41% 29.90 in 10.0 mi ESE 10.4 mph - N/A   Clear
3:51 PM 89.1 °F 88.2 °F 59.0 °F 36% 29.87 in 10.0 mi SSE 11.5 mph - N/A   Clear
4:51 PM 86.0 °F 85.0 °F 57.9 °F 38% 29.87 in 10.0 mi SSE 12.7 mph - N/A   Clear
5:51 PM 82.9 °F 82.8 °F 59.0 °F 44% 29.86 in 10.0 mi ESE 11.5 mph - N/A   Clear
6:51 PM 78.1 °F - 59.0 °F 52% 29.88 in 10.0 mi ESE 9.2 mph - N/A   Clear
7:51 PM 73.9 °F - 59.0 °F 59% 29.90 in 10.0 mi ESE 6.9 mph - N/A   Clear
9:51 PM 71.1 °F - 59.0 °F 66% 29.92 in 10.0 mi SE 3.5 mph - N/A   Clear
10:51 PM 70.0 °F - 59.0 °F 68% 29.91 in 10.0 mi ESE 5.8 mph - N/A   Clear
11:51 PM 66.9 °F - 59.0 °F 76% 29.93 in 10.0 mi East 4.6 mph - N/A   Clear